User: anonymous   Login
Location: Unspecified
(0.0000°N, 0.0000°E)
Time: 06:52:16
(UTC+00:00)
Language:

FORMOSAT 3C - Orbit

View from above orbital plane
View from above orbital plane
View from above satellite
View from above satellite

Ground track
Ground track

The orbit data is extracted from the following two-line orbital elements,

1 29049U 06011C   17087.62486564 +.00000023 +00000-0 +25370-4 0  9992
2 29049 072.0193 068.8051 0037137 283.1820 076.5174 14.28551331571524
Epoch (UTC): 28 March 2017 14:59:48
Eccentricity: 0.0037137
inclination: 72.0193°
perigee height: 770 km
apogee height: 823 km
right ascension of ascending node: 68.8051°
argument of perigee: 283.1820°
revolutions per day: 14.28551331
mean anomaly at epoch: 76.5174°
orbit number at epoch: 57152

The dashed part of the orbit path shows where the satellite is in the earth's shadow,  

DLR